Hourly Weather Bolshoe Aksenovo

Today, 2 August, Monday

Time Temperature Precipitation Wind Pressure Humidity
00:00 +18°C° 0 mm 2 mps 745 mmHg 95%
01:00 +17°C° 0 mm 2 mps 746 mmHg 95%
02:00 +17°C° 0 mm 2 mps 746 mmHg 96%
03:00 +18°C° 0 mm 1 mps 746 mmHg 94%
04:00 +19°C° 0 mm 1 mps 745 mmHg 92%
05:00 +19°C° 0 mm 1 mps 745 mmHg 90%
06:00 +21°C° 0 mm 1 mps 745 mmHg 80%
07:00 +23°C° 0 mm 1 mps 745 mmHg 71%
08:00 +25°C° 0 mm 1 mps 745 mmHg 59%
09:00 +27°C° 0 mm 2 mps 745 mmHg 54%
10:00 +28°C° 0 mm 2 mps 744 mmHg 48%
11:00 +30°C° 0 mm 3 mps 744 mmHg 43%
12:00 +30°C° 0 mm 4 mps 743 mmHg 43%
13:00 +32°C° 0 mm 4 mps 743 mmHg 43%
14:00 +32°C° 0 mm 5 mps 742 mmHg 46%
15:00 +30°C° 0.1 mm 5 mps 742 mmHg 50%
16:00 +29°C° 0.1 mm 4 mps 741 mmHg 54%
17:00 +29°C° 0.1 mm 4 mps 741 mmHg 58%
18:00 +28°C° 0.1 mm 4 mps 740 mmHg 62%
19:00 +26°C° 0.1 mm 4 mps 740 mmHg 66%
20:00 +25°C° 0.1 mm 4 mps 739 mmHg 69%
21:00 +23°C° 0.7 mm 5 mps 739 mmHg 76%
22:00 +22°C° 0.7 mm 5 mps 739 mmHg 83%
23:00 +21°C° 0.7 mm 5 mps 739 mmHg 90%

Tomorrow, 3 August, Tuesday

Time Temperature Precipitation Wind Pressure Humidity
00:00 +20°C° 0 mm 5 mps 740 mmHg 88%
01:00 +17°C° 0 mm 6 mps 740 mmHg 86%
02:00 +16°C° 0 mm 6 mps 741 mmHg 84%
03:00 +16°C° 0 mm 5 mps 741 mmHg 81%
04:00 +17°C° 0 mm 5 mps 742 mmHg 78%
05:00 +18°C° 0 mm 4 mps 742 mmHg 75%
06:00 +19°C° 0 mm 4 mps 743 mmHg 69%
07:00 +20°C° 0 mm 4 mps 743 mmHg 64%
08:00 +20°C° 0 mm 4 mps 744 mmHg 58%
09:00 +22°C° 0 mm 4 mps 744 mmHg 54%
10:00 +23°C° 0 mm 4 mps 744 mmHg 49%
11:00 +25°C° 0 mm 5 mps 744 mmHg 44%
12:00 +25°C° 0 mm 4 mps 745 mmHg 45%
13:00 +23°C° 0 mm 4 mps 745 mmHg 46%
14:00 +23°C° 0 mm 4 mps 745 mmHg 46%
15:00 +23°C° 0 mm 4 mps 745 mmHg 47%
16:00 +23°C° 0 mm 4 mps 745 mmHg 47%
17:00 +23°C° 0 mm 4 mps 745 mmHg 48%
18:00 +21°C° 0 mm 3 mps 745 mmHg 51%
19:00 +20°C° 0 mm 3 mps 746 mmHg 55%
20:00 +19°C° 0 mm 2 mps 746 mmHg 58%
21:00 +17°C° 0 mm 2 mps 746 mmHg 63%
22:00 +16°C° 0 mm 2 mps 747 mmHg 69%
23:00 +15°C° 0 mm 2 mps 747 mmHg 75%

Day after tomorrow, 4 August, Wednesday

Time Temperature Precipitation Wind Pressure Humidity
00:00 +15°C° 0 mm 2 mps 747 mmHg 78%
01:00 +14°C° 0 mm 2 mps 748 mmHg 82%
02:00 +13°C° 0 mm 2 mps 748 mmHg 85%
03:00 +14°C° 0 mm 2 mps 748 mmHg 85%
04:00 +14°C° 0 mm 2 mps 748 mmHg 84%
05:00 +14°C° 0 mm 1 mps 749 mmHg 84%
06:00 +16°C° 0 mm 2 mps 749 mmHg 74%
07:00 +18°C° 0 mm 2 mps 750 mmHg 65%
08:00 +20°C° 0 mm 2 mps 750 mmHg 55%
09:00 +20°C° 0 mm 2 mps 750 mmHg 53%
10:00 +21°C° 0 mm 3 mps 750 mmHg 51%
11:00 +21°C° 0 mm 3 mps 750 mmHg 48%
12:00 +22°C° 0 mm 3 mps 750 mmHg 46%
13:00 +23°C° 0 mm 2 mps 750 mmHg 44%
14:00 +24°C° 0 mm 2 mps 750 mmHg 42%
15:00 +23°C° 0 mm 2 mps 750 mmHg 44%
16:00 +23°C° 0 mm 2 mps 750 mmHg 45%
17:00 +23°C° 0 mm 2 mps 751 mmHg 47%
18:00 +20°C° 0 mm 2 mps 751 mmHg 50%
19:00 +20°C° 0 mm 1 mps 751 mmHg 53%
20:00 +19°C° 0 mm 1 mps 751 mmHg 56%
21:00 +18°C° 0 mm 1 mps 751 mmHg 57%
22:00 +18°C° 0 mm 1 mps 752 mmHg 59%
23:00 +16°C° 0 mm 1 mps 752 mmHg 60%

5 August, Thursday

Time Temperature Precipitation Wind Pressure Humidity
00:00 +15°C° 0 mm 1 mps 752 mmHg 64%
01:00 +14°C° 0 mm 1 mps 752 mmHg 67%
02:00 +13°C° 0 mm 1 mps 752 mmHg 71%
03:00 +14°C° 0 mm 1 mps 752 mmHg 69%
04:00 +13°C° 0 mm 0 mps 753 mmHg 67%
05:00 +14°C° 0 mm 0 mps 753 mmHg 65%
06:00 +18°C° 0 mm 1 mps 753 mmHg 60%
07:00 +19°C° 0 mm 1 mps 753 mmHg 55%
08:00 +21°C° 0 mm 1 mps 753 mmHg 50%
09:00 +22°C° 0 mm 1 mps 752 mmHg 45%
10:00 +23°C° 0 mm 2 mps 752 mmHg 40%
11:00 +24°C° 0 mm 2 mps 752 mmHg 36%
12:00 +24°C° 0 mm 2 mps 752 mmHg 39%
13:00 +24°C° 0 mm 1 mps 752 mmHg 42%
14:00 +23°C° 0 mm 1 mps 752 mmHg 45%
15:00 +20°C° 0.3 mm 2 mps 752 mmHg 59%
16:00 +18°C° 0.3 mm 2 mps 752 mmHg 73%
17:00 +16°C° 0.3 mm 2 mps 752 mmHg 86%
18:00 +16°C° 0.6 mm 2 mps 752 mmHg 89%
19:00 +15°C° 0.6 mm 2 mps 751 mmHg 93%
20:00 +15°C° 0.6 mm 2 mps 751 mmHg 96%
21:00 +15°C° 0.8 mm 2 mps 751 mmHg 96%
22:00 +14°C° 0.8 mm 2 mps 751 mmHg 96%
23:00 +14°C° 0.8 mm 2 mps 750 mmHg 97%

6 August, Friday

Time Temperature Precipitation Wind Pressure Humidity
00:00 +14°C° 0.7 mm 2 mps 750 mmHg 97%
01:00 +14°C° 0.7 mm 2 mps 750 mmHg 97%
02:00 +14°C° 0.7 mm 2 mps 749 mmHg 97%
03:00 +14°C° 0.7 mm 2 mps 749 mmHg 97%
04:00 +14°C° 0.7 mm 2 mps 749 mmHg 98%
05:00 +14°C° 0.7 mm 1 mps 749 mmHg 98%
06:00 +15°C° 0.1 mm 1 mps 749 mmHg 98%
07:00 +15°C° 0.1 mm 1 mps 749 mmHg 98%
08:00 +15°C° 0.1 mm 1 mps 749 mmHg 97%
09:00 +16°C° 0 mm 1 mps 749 mmHg 95%
10:00 +16°C° 0 mm 2 mps 749 mmHg 93%
11:00 +17°C° 0 mm 2 mps 749 mmHg 90%
12:00 +18°C° 0 mm 2 mps 749 mmHg 86%
13:00 +19°C° 0 mm 2 mps 749 mmHg 81%
14:00 +20°C° 0 mm 2 mps 749 mmHg 76%
15:00 +20°C° 0 mm 2 mps 749 mmHg 75%
16:00 +20°C° 0 mm 2 mps 750 mmHg 75%
17:00 +20°C° 0 mm 3 mps 750 mmHg 74%
18:00 +19°C° 0.2 mm 3 mps 750 mmHg 81%
19:00 +18°C° 0.2 mm 3 mps 750 mmHg 89%
20:00 +16°C° 0.2 mm 3 mps 750 mmHg 96%
21:00 +16°C° 0.3 mm 3 mps 750 mmHg 96%
22:00 +17°C° 0.3 mm 4 mps 750 mmHg 97%
23:00 +17°C° 0.3 mm 4 mps 750 mmHg 97%

7 August, Saturday

Time Temperature Precipitation Wind Pressure Humidity
00:00 +15°C° 0 mm 4 mps 750 mmHg 97%
01:00 +15°C° 0 mm 4 mps 750 mmHg 96%
02:00 +15°C° 0 mm 4 mps 750 mmHg 96%
03:00 +15°C° 0.1 mm 4 mps 750 mmHg 96%
04:00 +15°C° 0.1 mm 4 mps 750 mmHg 96%
05:00 +14°C° 0.1 mm 4 mps 750 mmHg 96%
06:00 +15°C° 0.2 mm 4 mps 749 mmHg 95%
07:00 +17°C° 0.2 mm 4 mps 749 mmHg 94%
08:00 +16°C° 0.2 mm 5 mps 749 mmHg 93%
09:00 +19°C° 0 mm 5 mps 749 mmHg 84%
10:00 +21°C° 0 mm 5 mps 749 mmHg 75%
11:00 +23°C° 0 mm 4 mps 749 mmHg 67%
12:00 +26°C° 0 mm 4 mps 748 mmHg 59%
13:00 +28°C° 0 mm 4 mps 748 mmHg 52%
14:00 +30°C° 0 mm 4 mps 748 mmHg 44%
15:00 +27°C° 0.6 mm 4 mps 748 mmHg 60%
16:00 +24°C° 0.6 mm 3 mps 748 mmHg 75%
17:00 +21°C° 0.6 mm 2 mps 748 mmHg 90%
18:00 +21°C° 0.1 mm 2 mps 748 mmHg 89%
19:00 +21°C° 0.1 mm 2 mps 748 mmHg 88%
20:00 +21°C° 0.1 mm 2 mps 748 mmHg 87%
21:00 +20°C° 0.5 mm 2 mps 749 mmHg 89%
22:00 +20°C° 0.5 mm 2 mps 749 mmHg 91%
23:00 +20°C° 0.5 mm 1 mps 749 mmHg 94%
Show more

We Need Your Consent

Meteoprog and our Service Providers may store and access personal data such as cookies, device identifiers or other similar technologies on your device and process such data to personalise content and ads, as well as provide social media features and to analyse the traffic.

  • Store and/or access information on your device

    Cookies, device identifiers or other information can be stored or accessed on your device for the purposes indicated above.

  • Personalised ads and content, ad and content measurement, audience insights, and products development

    Ads and content can be personalised based on a profile. More data can be added to better personalise ads and content. Ad and content performance can be measured. Insights about the audience who saw the ads and content can be derived. Such data can be used to develop or improve user’s experience, systems and software.

By clicking ‘I Agree’ you will allow the use of indicated cookies, device identifiers, web beacons or other similar technologies. Your settings can be changed in the browser on your device.

For certain purposes, legitimate interests may be relied on, rather than consent. You can read more about this in our Privacy and Cookie Policy.